Cocoa Beach, FL

4:34 AM EDT on March 29, 2017 (GMT -0400)
Patrick Air Force Base

Weather History for KCOF - January, 2013

Change the Weather History Date:

Monday, January 7, 2013

  Actual Average Record
Temperature  
Mean Temperature 67 °F -  
Max Temperature 71 °F 68 °F 82 °F (2009)
Min Temperature 63 °F 54 °F 39 °F (2014)
Cooling Degree Days 2    
Growing Degree Days 17 (Base 50)    
Moisture  
Dew Point 63 °F    
Average Humidity 85    
Maximum Humidity 95    
Minimum Humidity 73    
Precipitation  
Precipitation 0.00 in - - ()
Sea Level Pressure  
Sea Level Pressure 30.16 in    
Wind  
Wind Speed 13 mph (North)    
Max Wind Speed 20 mph    
Max Gust Speed 23 mph    
Visibility 10 miles    
Events      
Averages and records for this station are not official NWS values.
T = Trace of Precipitation, MM = Missing Value Source: NWS Daily Summary

Daily Weather History Graph

Daily Weather History Graph

Search for Another Location

Airport or City:

Trip Planner

Search our weather history database for the weather conditions in past years. The results will help you decide how hot, cold, wet, or windy it might be!

Date:

Astronomy

Jan. 07, 2013 Rise Set
Actual Time 7:15 AM EST 5:42 PM EST
Civil Twilight 6:49 AM EST 6:07 PM EST
Nautical Twilight 6:20 AM EST 6:37 PM EST
Astronomical Twilight 5:52 AM EST 7:05 PM EST
Moon 2:43 AM EST (1/7) 1:48 PM EST (1/7)
Length of Visible Light 11h 18m
Length of Day
10h 26m
Waning Crescent, 23% of the Moon is Illuminated
Jan 7
Waning Crescent
Jan 11
New
Jan 18
First Quarter
Jan 26
Full
Feb 3
Last Quarter

Hourly Weather History & Observations

Time (EST) Temp. Dew Point Humidity Pressure Visibility Wind Dir Wind Speed Gust Speed Precip Events Conditions
12:15 AM 66.2 °F 64.4 °F 94% 30.14 in 10.0 mi NNW 11.5 mph - N/A   Mostly Cloudy
12:55 AM 66.2 °F 64.8 °F 95% 30.13 in 10.0 mi NNW 13.8 mph - N/A   Overcast
1:23 AM 66.2 °F 64.4 °F 94% 30.14 in 10.0 mi NNW 15.0 mph - N/A   Overcast
1:34 AM 66.2 °F 64.4 °F 94% 30.14 in 10.0 mi NNW 13.8 mph 20.7 mph N/A   Overcast
1:55 AM 65.3 °F 63.5 °F 94% 30.14 in 10.0 mi NNW 15.0 mph - N/A   Overcast
2:31 AM 64.4 °F 62.6 °F 94% 30.14 in 10.0 mi NNW 13.8 mph - N/A   Overcast
2:55 AM 64.8 °F 63.0 °F 94% 30.14 in 10.0 mi NNW 10.4 mph - N/A   Overcast
3:55 AM 65.1 °F 63.3 °F 94% 30.14 in 10.0 mi North 8.1 mph - N/A   Overcast
4:01 AM 64.4 °F 62.6 °F 94% 30.13 in 10.0 mi North 6.9 mph - N/A   Mostly Cloudy
4:42 AM 66.2 °F 64.4 °F 94% 30.13 in 10.0 mi North 11.5 mph - N/A   Overcast
4:55 AM 65.5 °F 63.3 °F 93% 30.13 in 10.0 mi North 12.7 mph - N/A   Overcast
5:33 AM 64.4 °F 62.6 °F 94% 30.14 in 10.0 mi NNW 17.3 mph - N/A   Overcast
5:55 AM 64.8 °F 62.4 °F 92% 30.16 in 10.0 mi NNW 11.5 mph - N/A   Overcast
6:00 AM 64.4 °F 62.6 °F 94% 30.16 in 10.0 mi NNW 12.7 mph - N/A   Overcast
6:24 AM 64.4 °F 60.8 °F 88% 30.16 in 10.0 mi NNW 15.0 mph - N/A   Overcast
6:47 AM 64.4 °F 60.8 °F 88% 30.17 in 10.0 mi NNW 15.0 mph 20.7 mph N/A   Overcast
6:55 AM 63.5 °F 59.9 °F 88% 30.17 in 10.0 mi NNW 15.0 mph 20.7 mph N/A   Overcast
7:55 AM 64.2 °F 60.1 °F 86% 30.19 in 10.0 mi NNW 13.8 mph - N/A   Overcast
8:39 AM 64.4 °F 59.0 °F 83% 30.20 in 10.0 mi North 13.8 mph - N/A   Overcast
8:55 AM 65.7 °F 59.2 °F 80% 30.21 in 10.0 mi NNW 12.7 mph - N/A   Overcast
9:55 AM 67.1 °F 59.4 °F 76% 30.22 in 10.0 mi North 12.7 mph - N/A   Mostly Cloudy
10:55 AM 69.8 °F 61.2 °F 74% 30.22 in 10.0 mi North 17.3 mph 23.0 mph N/A   Partly Cloudy
11:55 AM 71.1 °F 62.1 °F 73% 30.20 in 10.0 mi North 19.6 mph - N/A   Scattered Clouds
12:55 PM 71.4 °F 63.0 °F 75% 30.17 in 10.0 mi NNE 18.4 mph 23.0 mph N/A   Partly Cloudy
1:17 PM 71.6 °F 62.6 °F 73% 30.16 in 10.0 mi North 17.3 mph - N/A   Mostly Cloudy
1:42 PM 71.6 °F 62.6 °F 73% 30.15 in 10.0 mi North 17.3 mph - N/A   Mostly Cloudy
1:55 PM 71.2 °F 62.8 °F 75% 30.15 in 10.0 mi North 16.1 mph - N/A   Mostly Cloudy
2:55 PM 70.5 °F 62.8 °F 76% 30.15 in 10.0 mi North 16.1 mph - N/A   Overcast
3:55 PM 69.8 °F 63.1 °F 79% 30.16 in 10.0 mi NNE 12.7 mph - N/A   Overcast
4:55 PM 69.8 °F 63.5 °F 80% 30.17 in 10.0 mi NNE 15.0 mph - N/A   Overcast
5:55 PM 69.8 °F 63.9 °F 81% 30.18 in 10.0 mi NE 12.7 mph - N/A   Overcast
6:10 PM 69.8 °F 64.4 °F 83% 30.18 in 10.0 mi NE 12.7 mph - N/A   Overcast
6:55 PM 70.2 °F 63.9 °F 80% 30.18 in 10.0 mi NE 13.8 mph - N/A   Overcast
7:55 PM 70.5 °F 64.4 °F 81% 30.19 in 10.0 mi NE 10.4 mph - N/A   Overcast
8:55 PM 70.5 °F 64.8 °F 82% 30.19 in 10.0 mi NE 13.8 mph - N/A   Overcast
9:55 PM 70.3 °F 64.8 °F 82% 30.19 in 10.0 mi NE 11.5 mph - N/A   Overcast
10:55 PM 70.5 °F 65.3 °F 83% 30.18 in 10.0 mi ENE 11.5 mph - N/A   Overcast
11:55 PM 70.5 °F 66.0 °F 86% 30.17 in 10.0 mi NE 12.7 mph - N/A   Mostly Cloudy